RH
50 46 44 42 39 37 35 32 30 29 28 28 28 28 28 30 32 34 36 38 39 40
54 49 47 44 41 38 36 34 33 31 31 31 31 31 33 35 37 39 41 43 44 45
56 51 48 44 42 41 40 37 35 35 35 34 35 37 39 41 43 45 47 47 48 49
59 51 50 48 46 43 41 40 40 39 38 38 41 44 46 48 50 50 50 50 51 52
56 54 51 49 48 47 46 45 44 42 43 45 49 51 51 51 51 51 50 49 46 42
59 55 54 54 54 53 51 48 46 47 50 54 53 51 49 44 40 37 37 38 39 41
62 62 61 60 58 55 52 49 52 54 53 48 42 40 38 37 37 38 39 39 39 38
65 64 62 58 58 54 53 55 51 44 42 41 39 38 38 39 39 38 38 37 35 33
63 63 64 59 54 58 51 46 44 42 42 40 39 40 40 39 39 39 36 33 30 29
65 57 56 57 53 50 46 43 44 42 40 41 42 41 40 39 38 35 33 31 31 30
57 61 59 54 48 43 43 44 44 43 43 43 43 42 41 39 38 36 35 35 34 33
54 50 48 46 45 46 46 46 43 44 45 46 46 45 42 42 41 40 40 38 35 32
56 54 51 48 46 47 44 44 46 47 48 50 47 48 47 46 44 42 39 35 31 30
51 49 49 45 44 45 49 52 53 51 52 54 57 55 50 46 42 39 36 34 33 31